FW3031 Weather Reports


time (UTC)temp
C
wind
direction
speed
KPH
gust
KPH
rain 1hr
cm
rain 24hr
cm
rain mn
cm
humidity
%
barometer
mb
20260906220512 30 190 0.0 9.7 0.00 0.05 0.05 55 1009.9
20260906220104 30 190 1.6 12.9 0.00 0.03 0.03 55 1008.1
20260906220016 29 190 1.6 12.9 0.00 0.05 0.05 56 1009.8
20260906215516 29 190 4.8 12.9 0.00 0.05 0.05 56 1009.8
20260906215010 30 190 4.8 11.3 0.00 0.05 0.05 55 1009.9
20260906214605 30 190 3.2 11.3 0.00 0.03 0.03 54 1008.3
20260906214510 30 190 3.2 11.3 0.00 0.05 0.05 54 1010.0
20260906214009 30 190 3.2 9.7 0.00 0.05 0.05 54 1010.1
20260906213509 30 190 0.0 6.4 0.00 0.05 0.05 54 1010.2
20260906213111 30 190 0.0 9.7 0.00 0.03 0.03 52 1008.6
20260906213009 30 190 0.0 9.7 0.00 0.05 0.05 53 1010.3
20260906212507 30 190 1.6 9.7 0.00 0.05 0.05 51 1010.3
20260906212007 30 190 0.0 8.0 0.00 0.05 0.05 51 1010.4
20260906211612 30 190 3.2 9.7 0.00 0.03 0.03 48 1008.6
20260906211507 30 190 1.6 9.7 0.00 0.05 0.05 49 1010.3
20260906211008 30 190 1.6 9.7 0.00 0.05 0.05 48 1010.4
20260906210507 30 190 0.0 6.4 0.00 0.05 0.05 49 1010.4
20260906210111 30 0 0.0 9.7 0.00 0.03 0.03 49 1008.7
20260906210004 30 190 0.0 9.7 0.00 0.05 0.05 49 1010.5
20260906205504 30 190 3.2 9.7 0.00 0.05 0.05 49 1010.7
20260906205002 31 190 1.6 11.3 0.00 0.05 0.05 49 1010.9
20260906204605 31 190 3.2 9.7 0.00 0.03 0.03 48 1009.0
20260906204502 31 190 3.2 9.7 0.00 0.05 0.05 49 1010.9
20260906204001 31 190 0.0 0.0 0.00 0.00 0.05 50 1010.9
20260906203600 30 190 0.0 8.0 0.00 0.05 0.05 51 1011.0
20260906203103 30 190 0.0 6.4 0.00 0.05 0.05 50 1011.2
20260906203100 30 0 0.0 8.0 0.00 0.03 0.03 50 1009.2
20260906202558 30 190 0.0 8.0 0.00 0.05 0.05 51 1011.3
20260906202100 30 190 0.0 6.4 0.00 0.05 0.05 52 1011.4
20260906201616 30 190 1.6 8.0 0.00 0.03 0.03 50 1009.6
20260906201602 30 190 3.2 6.4 0.00 0.05 0.05 51 1011.6
20260906201056 30 190 0.0 8.0 0.00 0.05 0.05 51 1011.8
20260906200554 30 190 1.6 9.7 0.00 0.05 0.05 51 1011.8
20260906200104 30 0 1.6 9.7 0.00 0.03 0.03 51 1009.9
20260906200053 30 190 0.0 9.7 0.00 0.05 0.05 52 1011.9
20260906195552 30 190 1.6 9.7 0.00 0.05 0.05 52 1012.0
20260906195055 30 190 1.6 9.7 0.00 0.05 0.05 52 1012.1
20260906194601 30 0 0.0 9.7 0.00 0.03 0.03 52 1010.1
20260906194550 30 190 0.0 3.2 0.00 0.05 0.05 52 1012.2
20260906194049 29 190 0.0 9.7 0.00 0.05 0.05 53 1012.4
20260906193548 29 190 0.0 9.7 0.00 0.05 0.05 55 1012.5
20260906193100 29 190 0.0 6.4 0.00 0.03 0.03 54 1010.4
20260906193048 29 190 1.6 6.4 0.00 0.05 0.05 54 1012.7
20260906192545 29 190 0.0 6.4 0.00 0.05 0.05 55 1012.8
20260906192045 28 190 0.0 6.4 0.00 0.05 0.05 56 1012.9
20260906191607 28 190 0.0 6.4 0.00 0.03 0.03 57 1010.8
20260906191547 28 190 0.0 6.4 0.00 0.05 0.05 57 1013.0
20260906191042 28 190 1.6 6.4 0.00 0.05 0.05 57 1013.2
20260906190543 28 190 0.0 4.8 0.00 0.05 0.05 58 1013.5
20260906190040 28 190 0.0 8.0 0.00 0.05 0.05 58 1013.6
20260906185539 28 190 1.6 8.0 0.00 0.05 0.05 58 1013.7
20260906185038 28 190 1.6 6.4 0.00 0.05 0.05 58 1013.8
20260906184603 28 0 0.0 3.2 0.00 0.03 0.03 57 1011.8
20260906184540 28 190 0.0 3.2 0.00 0.05 0.05 58 1014.0
20260906184036 27 190 0.0 4.8 0.00 0.05 0.05 59 1014.2
20260906183536 27 190 0.0 4.8 0.00 0.05 0.05 59 1014.3
20260906183121 27 190 0.0 4.8 0.00 0.03 0.03 58 1012.2
20260906183043 27 190 0.0 4.8 0.00 0.05 0.05 61 1014.4
20260906182535 27 190 0.0 0.0 0.00 0.05 0.05 62 1014.6
20260906182036 27 190 0.0 4.8 0.00 0.05 0.05 63 1014.7
20260906181619 27 0 0.0 4.8 0.00 0.03 0.03 61 1012.8
20260906181542 27 190 0.0 4.8 0.00 0.05 0.05 62 1014.9
20260906181032 27 190 0.0 3.2 0.00 0.05 0.05 64 1015.0
20260906180531 26 190 0.0 6.4 0.00 0.05 0.05 64 1015.2
20260906180120 26 0 0.0 6.4 0.00 0.03 0.03 64 1013.2
20260906180030 26 190 0.0 6.4 0.00 0.05 0.05 64 1015.4
20260906175530 26 190 0.0 0.0 0.00 0.05 0.05 65 1015.5
20260906175028 26 190 0.0 3.2 0.00 0.05 0.05 66 1015.5
20260906174602 26 0 0.0 3.2 0.00 0.03 0.03 65 1013.6
20260906174529 26 190 0.0 3.2 0.00 0.05 0.05 66 1015.6
20260906174029 26 190 0.0 0.0 0.00 0.05 0.05 65 1015.7
20260906173525 26 190 0.0 4.8 0.00 0.05 0.05 66 1015.8
20260906173106 26 0 0.0 4.8 0.00 0.03 0.03 65 1013.9
20260906173025 26 190 0.0 4.8 0.00 0.05 0.05 67 1015.9
20260906172523 25 190 0.0 1.6 0.00 0.05 0.05 69 1016.0
20260906172023 25 190 0.0 1.6 0.00 0.05 0.05 68 1016.0
20260906171605 25 0 0.0 1.6 0.00 0.03 0.03 69 1014.1
20260906171521 25 190 0.0 0.0 0.00 0.05 0.05 70 1016.1
20260906171020 24 190 0.0 1.6 0.00 0.05 0.05 71 1016.1
20260906170518 24 190 0.0 1.6 0.00 0.05 0.05 71 1016.1
20260906170106 24 0 0.0 1.6 0.00 0.03 0.03 73 1014.0
20260906170019 24 190 0.0 1.6 0.00 0.05 0.05 73 1016.1
20260906165519 23 190 0.0 3.2 0.00 0.05 0.05 75 1016.1
20260906165018 23 190 0.0 3.2 0.00 0.05 0.05 73 1016.1
20260906164604 23 0 0.0 0.0 0.00 0.03 0.03 76 1014.0
20260906164518 23 190 0.0 0.0 0.00 0.05 0.05 76 1016.1
20260906164015 23 190 0.0 0.0 0.00 0.05 0.05 76 1016.2
20260906163514 23 190 0.0 0.0 0.00 0.05 0.05 75 1016.2
20260906163110 23 0 0.0 0.0 0.00 0.03 0.03 76 1014.1
20260906163018 23 190 0.0 0.0 0.00 0.05 0.05 76 1016.3
20260906162518 23 190 0.0 0.0 0.00 0.05 0.05 76 1016.3
20260906162014 23 190 0.0 0.0 0.00 0.05 0.05 76 1016.3
20260906161604 23 0 0.0 0.0 0.00 0.03 0.03 77 1014.2
20260906161514 23 190 0.0 0.0 0.00 0.05 0.05 78 1016.3
20260906161013 23 190 0.0 0.0 0.00 0.05 0.05 77 1016.4
20260906160514 23 190 0.0 0.0 0.00 0.05 0.05 79 1016.5
20260906160013 23 190 0.0 0.0 0.00 0.05 0.05 80 1016.6
20260906155517 23 190 0.0 0.0 0.00 0.05 0.05 81 1016.6
20260906155012 22 190 0.0 1.6 0.00 0.05 0.05 81 1016.6
20260906154608 22 0 0.0 1.6 0.00 0.03 0.03 80 1014.4
20260906154548 22 190 0.0 1.6 0.00 0.05 0.05 81 1016.7
20260906154047 22 190 0.0 0.0 0.00 0.05 0.05 82 1016.6
20260906153547 22 190 0.0 0.0 0.00 0.05 0.05 83 1016.6
20260906153102 22 0 0.0 0.0 0.00 0.03 0.03 82 1014.4
20260906153047 22 190 0.0 0.0 0.00 0.05 0.05 83 1016.6
20260906152545 22 190 0.0 0.0 0.00 0.05 0.05 84 1016.5
20260906152044 22 190 0.0 1.6 0.00 0.05 0.05 84 1016.4
20260906151601 22 0 0.0 1.6 0.00 0.03 0.03 83 1014.1
20260906151551 22 190 0.0 1.6 0.00 0.05 0.05 83 1016.3
20260906151043 21 190 0.0 0.0 0.00 0.05 0.05 85 1016.3
20260906150543 21 190 0.0 0.0 0.00 0.05 0.05 84 1016.1
20260906150106 21 0 0.0 1.6 0.00 0.03 0.03 84 1013.8
20260906150042 21 190 0.0 0.0 0.00 0.05 0.05 85 1016.0
20260906145543 21 190 0.0 1.6 0.00 0.05 0.05 85 1016.0
20260906145045 21 190 0.0 3.2 0.00 0.05 0.05 85 1016.0
20260906144607 21 190 0.0 1.6 0.00 0.03 0.03 85 1013.7
20260906144544 21 190 0.0 3.2 0.00 0.05 0.05 85 1016.0
20260906144042 21 190 0.0 0.0 0.00 0.05 0.05 85 1015.9
20260906143541 21 190 0.0 0.0 0.00 0.05 0.05 86 1015.8
20260906143101 21 0 0.0 3.2 0.00 0.03 0.03 86 1013.6
20260906143041 21 190 0.0 0.0 0.00 0.05 0.05 87 1015.9
20260906142541 21 190 0.0 3.2 0.00 0.05 0.05 87 1015.9
20260906142041 21 190 0.0 3.2 0.00 0.05 0.05 87 1015.8
20260906141608 21 0 0.0 0.0 0.00 0.03 0.03 87 1013.5
20260906141540 21 190 0.0 0.0 0.00 0.05 0.05 88 1015.8
20260906141040 20 190 0.0 0.0 0.00 0.05 0.05 89 1015.8
20260906140543 20 190 0.0 0.0 0.00 0.05 0.05 88 1015.8
20260906140103 20 0 0.0 3.2 0.00 0.03 0.03 89 1013.5
20260906140042 20 190 0.0 3.2 0.00 0.05 0.05 89 1015.7
20260906135539 20 190 0.0 3.2 0.00 0.05 0.05 89 1015.7
20260906135037 20 190 0.0 0.0 0.00 0.05 0.05 89 1015.6
20260906134606 20 0 0.0 0.0 0.00 0.03 0.03 89 1013.3
20260906134538 20 190 0.0 0.0 0.00 0.05 0.05 90 1015.6
20260906134038 20 190 0.0 0.0 0.00 0.05 0.05 90 1015.6
20260906133537 20 190 0.0 1.6 0.00 0.05 0.05 91 1015.6
20260906133107 20 0 0.0 4.8 0.00 0.03 0.03 91 1013.3
20260906133041 20 190 0.0 4.8 0.00 0.05 0.05 92 1015.5
20260906132538 20 190 0.0 4.8 0.00 0.05 0.05 92 1015.5
20260906132037 20 190 0.0 3.2 0.00 0.05 0.05 92 1015.4
20260906131608 20 0 0.0 0.0 0.00 0.03 0.03 92 1013.1
20260906131538 20 190 0.0 0.0 0.00 0.05 0.05 92 1015.3
20260906131036 20 190 0.0 1.6 0.00 0.05 0.05 92 1015.3
20260906130537 20 190 0.0 3.2 0.00 0.05 0.05 92 1015.3
20260906130111 20 190 0.0 3.2 0.00 0.03 0.03 91 1013.1
20260906130037 20 190 0.0 3.2 0.00 0.05 0.05 91 1015.2
20260906125535 20 190 0.0 0.0 0.00 0.05 0.05 91 1015.2
20260906125036 20 190 0.0 0.0 0.00 0.05 0.05 91 1015.2
20260906124602 20 0 0.0 0.0 0.00 0.03 0.03 90 1012.8
20260906124538 20 190 0.0 0.0 0.00 0.05 0.05 91 1015.0
20260906124035 20 190 0.0 0.0 0.00 0.05 0.05 91 1014.9
20260906123534 20 190 0.0 0.0 0.00 0.05 0.05 91 1014.8
20260906123102 20 0 0.0 0.0 0.00 0.03 0.03 91 1012.6
20260906123037 20 190 0.0 0.0 0.00 0.05 0.05 91 1014.8
20260906122535 20 190 0.0 0.0 0.00 0.05 0.05 92 1014.6
20260906122036 20 190 0.0 0.0 0.00 0.05 0.05 92 1014.6
20260906121609 20 0 0.0 0.0 0.00 0.03 0.03 92 1012.4
20260906121535 20 190 0.0 0.0 0.00 0.05 0.05 92 1014.5
20260906121035 20 190 0.0 0.0 0.00 0.05 0.05 92 1014.4
20260906120535 20 190 0.0 0.0 0.00 0.05 0.05 92 1014.4
20260906120032 19 190 0.0 0.0 0.00 0.05 0.05 92 1014.3
20260906115533 19 190 0.0 0.0 0.00 0.05 0.05 92 1014.3
20260906115033 20 190 0.0 0.0 0.00 0.05 0.05 92 1014.1
20260906114613 20 0 0.0 0.0 0.00 0.03 0.03 92 1012.1
20260906114532 20 190 0.0 0.0 0.00 0.05 0.05 92 1014.0
20260906114031 20 190 0.0 0.0 0.00 0.05 0.05 92 1014.1
20260906113532 20 190 0.0 0.0 0.00 0.05 0.05 92 1014.1
20260906113101 20 0 0.0 0.0 0.00 0.03 0.03 92 1012.0
20260906113034 20 190 0.0 0.0 0.00 0.05 0.05 92 1014.0
20260906112532 20 190 0.0 3.2 0.00 0.05 0.05 92 1014.2
20260906112031 20 190 0.0 3.2 0.00 0.05 0.05 92 1014.0
20260906111606 20 0 0.0 3.2 0.00 0.03 0.03 91 1012.0
20260906111531 20 190 0.0 3.2 0.00 0.05 0.05 91 1014.1
20260906111030 20 190 0.0 0.0 0.00 0.05 0.05 91 1014.1
20260906110530 20 190 0.0 0.0 0.03 0.05 0.05 91 1014.0
20260906110028 20 190 0.0 0.0 0.03 0.05 0.05 90 1014.2
20260906105528 20 190 0.0 0.0 0.03 0.05 0.05 90 1014.2
20260906105028 20 190 0.0 0.0 0.03 0.05 0.05 90 1014.2
20260906104607 20 0 0.0 0.0 0.00 0.03 0.03 89 1012.2
20260906104527 20 190 0.0 0.0 0.03 0.05 0.05 90 1014.3
20260906104028 20 190 0.0 0.0 0.03 0.05 0.05 90 1014.3
20260906103527 20 190 0.0 0.0 0.03 0.05 0.05 91 1014.3
20260906103105 20 0 0.0 0.0 0.00 0.03 0.03 90 1012.4
20260906103041 20 190 0.0 0.0 0.03 0.05 0.05 91 1014.4
20260906102531 20 190 0.0 0.0 0.03 0.05 0.05 91 1014.4
20260906102026 20 190 0.0 0.0 0.03 0.05 0.05 92 1014.4
20260906101600 20 0 0.0 3.2 0.00 0.03 0.03 91 1012.3
20260906101527 20 190 0.0 1.6 0.03 0.05 0.05 91 1014.4
20260906101029 20 190 0.0 3.2 0.03 0.05 0.05 91 1014.3
20260906100525 20 190 0.0 3.2 0.03 0.03 0.03 91 1014.3
20260906100028 20 190 0.0 3.2 0.03 0.03 0.03 91 1014.3
20260906095524 20 190 0.0 1.6 0.03 0.05 0.03 90 1014.2
20260906095024 20 190 0.0 0.0 0.03 0.05 0.03 90 1014.2
20260906094606 20 0 0.0 0.0 0.00 0.03 0.00 89 1012.0
20260906094522 20 190 0.0 0.0 0.03 0.05 0.03 90 1014.1
20260906094022 20 190 0.0 0.0 0.03 0.05 0.03 89 1014.0
20260906093522 20 190 0.0 0.0 0.03 0.05 0.03 89 1014.1
20260906093105 20 0 0.0 1.6 0.00 0.03 0.00 88 1011.9
20260906093024 20 190 0.0 0.0 0.03 0.05 0.03 88 1014.1
20260906092523 20 190 0.0 1.6 0.03 0.05 0.03 88 1014.1
20260906092022 20 190 0.0 1.6 0.03 0.05 0.03 87 1014.1
20260906091601 20 0 0.0 0.0 0.00 0.03 0.00 87 1012.0
20260906091519 20 190 0.0 0.0 0.03 0.05 0.03 87 1014.1
20260906091018 20 190 0.0 0.0 0.00 0.03 0.00 87 1014.1
20260906090517 20 190 0.0 0.0 0.00 0.03 0.00 86 1014.1
20260906090108 21 0 0.0 0.0 0.00 0.00 0.00 85 1012.0
20260906090016 20 190 0.0 0.0 0.00 0.03 0.00 85 1014.1
20260906085515 21 190 0.0 0.0 0.00 0.15 0.00 84 1014.1
20260906085015 21 190 0.0 0.0 0.00 0.15 0.00 84 1014.1
20260906084603 21 0 0.0 0.0 0.00 0.15 0.00 84 1011.9
20260906084514 21 190 0.0 0.0 0.00 0.15 0.00 84 1014.1
20260906084020 21 190 0.0 0.0 0.00 0.15 0.00 82 1014.1
20260906083512 21 190 0.0 0.0 0.00 0.15 0.00 81 1014.1
20260906083103 21 0 0.0 0.0 0.00 0.15 0.00 81 1012.0
20260906083012 21 190 0.0 0.0 0.00 0.15 0.00 81 1014.1
20260906082513 21 190 0.0 0.0 0.00 0.15 0.00 81 1014.2
20260906082011 21 190 0.0 0.0 0.00 0.15 0.00 82 1014.2
20260906081619 21 0 0.0 0.0 0.00 0.15 0.00 81 1012.0
20260906081512 21 190 0.0 0.0 0.00 0.15 0.00 82 1014.2
20260906081010 21 190 0.0 3.2 0.00 0.15 0.00 82 1014.2
20260906080509 21 190 0.0 3.2 0.00 0.15 0.00 81 1014.3
20260906080108 21 0 0.0 6.4 0.00 0.15 0.00 81 1012.1
20260906080009 21 190 0.0 1.6 0.00 0.15 0.00 81 1014.3
20260906075507 21 190 0.0 6.4 0.00 0.15 0.00 81 1014.3
20260906075006 21 190 1.6 6.4 0.00 0.15 0.00 80 1014.5
20260906074617 21 0 0.0 4.8 0.00 0.15 0.00 80 1012.3
20260906074505 21 190 0.0 3.2 0.00 0.15 0.00 80 1014.6
20260906074003 21 190 0.0 4.8 0.00 0.15 0.00 79 1014.7
20260906073503 21 190 0.0 4.8 0.00 0.15 0.00 78 1014.9
20260906073107 22 190 0.0 4.8 0.00 0.15 0.00 77 1012.7
20260906073001 22 190 0.0 4.8 0.00 0.15 0.00 77 1014.9
20260906072600 22 190 0.0 3.2 0.00 0.15 0.00 76 1014.9
20260906072101 22 190 0.0 0.0 0.00 0.15 0.00 73 1014.9
20260906071605 22 0 0.0 0.0 0.00 0.15 0.00 73 1012.8
20260906071600 22 190 0.0 0.0 0.00 0.15 0.00 74 1015.1
20260906071101 22 190 0.0 3.2 0.00 0.15 0.00 73 1015.1
20260906070558 22 190 0.0 6.4 0.00 0.15 0.00 73 1015.2
20260906070114 22 190 3.2 6.4 0.00 0.15 0.00 72 1013.2
20260906070056 22 190 1.6 6.4 0.00 0.15 0.00 73 1015.3
20260906065555 22 190 0.0 1.6 0.00 0.20 0.00 74 1015.4
20260906065054 22 190 0.0 4.8 0.00 0.20 0.00 73 1015.4
20260906064602 22 190 0.0 3.2 0.00 0.18 0.00 73 1013.4
20260906064557 22 190 0.0 4.8 0.00 0.20 0.00 73 1015.6
20260906064054 22 190 0.0 6.4 0.00 0.20 0.00 73 1015.6
20260906063551 22 190 0.0 6.4 0.00 0.20 0.00 73 1015.5
20260906063102 22 190 3.2 8.0 0.00 0.18 0.00 72 1013.3
20260906063052 22 190 3.2 8.0 0.00 0.20 0.00 72 1015.5
20260906062549 22 190 1.6 8.0 0.00 0.20 0.00 72 1015.6
20260906062049 23 190 1.6 6.4 0.00 0.20 0.00 71 1015.6
20260906061611 23 190 1.6 4.8 0.00 0.18 0.00 70 1013.3
20260906061548 23 190 1.6 4.8 0.00 0.20 0.00 70 1015.6
20260906061046 23 190 0.0 4.8 0.00 0.20 0.00 70 1015.6
20260906060545 23 190 0.0 8.0 0.00 0.20 0.00 71 1015.6
20260906060112 23 190 4.8 8.0 0.00 0.18 0.00 69 1013.3
20260906060043 23 190 4.8 8.0 0.00 0.20 0.00 69 1015.5
20260906055543 23 190 0.0 3.2 0.00 0.23 0.20 71 1015.6
20260906055044 23 190 0.0 1.6 0.00 0.23 0.20 71 1015.6
20260906054614 23 0 0.0 4.8 0.00 0.20 0.18 74 1013.4
20260906054543 23 190 0.0 4.8 0.00 0.23 0.20 74 1015.6
20260906054043 23 190 0.0 4.8 0.00 0.23 0.20 74 1015.6
20260906053543 23 190 0.0 4.8 0.00 0.23 0.20 75 1015.6
20260906053104 23 190 3.2 8.0 0.00 0.20 0.18 74 1013.4
20260906053043 23 190 1.6 8.0 0.00 0.23 0.20 75 1015.6
20260906052543 24 190 1.6 8.0 0.00 0.23 0.20 73 1015.6
20260906052043 24 190 0.0 6.4 0.00 0.23 0.20 69 1015.6
20260906051606 24 190 0.0 6.4 0.00 0.20 0.18 67 1013.4
20260906051543 24 190 0.0 6.4 0.00 0.23 0.20 67 1015.5
20260906051043 24 190 3.2 6.4 0.00 0.23 0.20 69 1015.5
20260906050544 24 190 0.0 4.8 0.00 0.23 0.20 72 1015.5
20260906050110 24 0 0.0 6.4 0.00 0.20 0.18 71 1013.3
20260906050045 24 190 0.0 6.4 0.00 0.23 0.20 71 1015.5
20260906045542 24 190 1.6 6.4 0.00 0.23 0.20 72 1015.5
20260906045042 24 190 1.6 6.4 0.00 0.23 0.20 72 1015.5
20260906044602 24 190 1.6 4.8 0.00 0.20 0.18 71 1013.3
20260906044544 24 190 1.6 6.4 0.00 0.23 0.20 72 1015.5
20260906044042 24 190 0.0 4.8 0.00 0.23 0.20 72 1015.4
20260906043541 24 190 1.6 4.8 0.00 0.23 0.20 71 1015.3
20260906043106 24 0 0.0 0.0 0.00 0.20 0.18 70 1013.0
20260906043041 24 190 0.0 0.0 0.00 0.23 0.20 71 1015.2
20260906042541 24 190 0.0 0.0 0.00 0.23 0.20 71 1015.1
20260906042041 24 190 0.0 0.0 0.00 0.23 0.20 70 1015.1
20260906041602 25 0 0.0 0.0 0.00 0.20 0.18 69 1012.9
20260906041541 25 190 0.0 0.0 0.00 0.23 0.20 70 1015.1
20260906041041 25 190 0.0 0.0 0.00 0.23 0.20 69 1015.0
20260906040541 24 190 0.0 0.0 0.00 0.23 0.20 70 1014.9
20260906040105 24 0 0.0 0.0 0.00 0.20 0.18 70 1012.8
20260906040040 24 190 0.0 0.0 0.00 0.23 0.20 70 1014.9
20260906035541 24 190 0.0 0.0 0.00 0.23 0.20 71 1014.8
20260906035039 24 190 0.0 0.0 0.00 0.23 0.20 71 1014.7
20260906034606 24 0 0.0 4.8 0.00 0.20 0.18 70 1012.6
20260906034540 24 190 0.0 3.2 0.00 0.23 0.20 71 1014.7
20260906034039 24 190 0.0 4.8 0.00 0.23 0.20 71 1014.6
20260906033538 25 190 1.6 4.8 0.00 0.23 0.20 70 1014.5
20260906033106 25 190 0.0 3.2 0.00 0.20 0.18 68 1012.5
20260906033039 25 190 0.0 3.2 0.00 0.23 0.20 69 1014.5
20260906032538 25 190 0.0 0.0 0.00 0.23 0.20 68 1014.5
20260906032038 25 190 0.0 0.0 0.00 0.23 0.20 67 1014.2
20260906031606 25 0 0.0 0.0 0.00 0.20 0.18 67 1012.0
20260906031540 25 190 0.0 0.0 0.00 0.23 0.20 68 1014.1
20260906031038 25 190 0.0 0.0 0.00 0.23 0.20 68 1014.0
20260906030538 25 190 0.0 4.8 0.00 0.23 0.20 68 1013.8
20260906030038 25 190 0.0 6.4 0.00 0.23 0.20 68 1013.5
20260906025537 25 190 0.0 6.4 0.00 0.23 0.20 68 1013.2
20260906025037 25 190 1.6 6.4 0.00 0.23 0.20 67 1013.3
20260906024608 25 190 1.6 6.4 0.00 0.20 0.18 67 1011.1
20260906024540 25 190 1.6 6.4 0.00 0.23 0.20 68 1013.1
20260906024041 25 190 1.6 6.4 0.00 0.23 0.20 68 1012.9
20260906023537 25 190 1.6 8.0 0.00 0.23 0.20 67 1012.9
20260906023102 25 190 1.6 6.4 0.00 0.20 0.18 66 1010.9
20260906023045 25 190 1.6 6.4 0.00 0.23 0.20 67 1012.9
20260906022537 25 190 0.0 6.4 0.00 0.23 0.20 67 1012.8
20260906022039 25 190 0.0 3.2 0.00 0.23 0.20 67 1012.8
20260906021607 25 0 0.0 4.8 0.00 0.20 0.18 66 1010.8
20260906021543 25 190 0.0 4.8 0.00 0.23 0.20 67 1012.7
20260906021036 25 190 1.6 4.8 0.00 0.23 0.20 66 1012.7
20260906020536 25 190 0.0 6.4 0.00 0.23 0.20 66 1012.6
20260906020108 25 0 0.0 8.0 0.00 0.20 0.18 65 1010.7
20260906020036 25 190 0.0 8.0 0.00 0.23 0.20 65 1012.6
20260906015535 25 190 1.6 6.4 0.00 0.23 0.20 64 1012.5
20260906015036 25 190 3.2 6.4 0.00 0.23 0.20 64 1012.3
20260906014604 25 0 0.0 8.0 0.00 0.20 0.18 63 1010.3
20260906014546 25 190 0.0 6.4 0.00 0.23 0.20 64 1012.2
20260906014035 25 190 1.6 8.0 0.00 0.23 0.20 63 1012.1
20260906013535 25 190 1.6 4.8 0.00 0.23 0.20 63 1012.0
20260906013103 25 0 1.6 8.0 0.00 0.20 0.18 62 1010.2
20260906013042 25 190 0.0 8.0 0.00 0.23 0.20 63 1012.1
20260906012534 25 190 0.0 8.0 0.00 0.23 0.20 62 1012.0
20260906012035 26 190 3.2 8.0 0.00 0.23 0.20 61 1012.0
20260906011601 26 190 3.2 11.3 0.00 0.20 0.18 60 1010.1
20260906011536 26 190 3.2 8.0 0.00 0.23 0.20 61 1011.9
20260906011037 26 190 1.6 11.3 0.00 0.23 0.20 61 1011.8
20260906010534 26 190 3.2 11.3 0.00 0.23 0.20 61 1011.5
20260906010108 26 190 8.0 14.5 0.00 0.20 0.18 60 1009.5
20260906010034 26 190 6.4 12.9 0.00 0.23 0.20 61 1011.3
20260906005533 26 190 4.8 14.5 0.00 0.23 0.20 60 1011.3
20260906005034 26 190 3.2 12.9 0.00 0.23 0.20 60 1011.2
20260906004603 27 190 6.4 11.3 0.00 0.20 0.18 59 1009.4
20260906004534 27 190 6.4 12.9 0.00 0.23 0.20 59 1011.2
20260906004033 27 190 4.8 11.3 0.00 0.23 0.20 59 1011.0
20260906003533 27 190 3.2 9.7 0.00 0.23 0.20 59 1010.9
20260906003108 27 190 1.6 8.0 0.00 0.20 0.18 57 1009.2
20260906003033 27 190 3.2 8.0 0.00 0.23 0.20 57 1010.9
20260906002532 27 190 1.6 8.0 0.00 0.23 0.20 57 1010.9
20260906002033 27 190 0.0 9.7 0.00 0.23 0.20 56 1011.0
20260906001605 27 190 4.8 9.7 0.00 0.20 0.18 55 1009.2
20260906001532 27 190 3.2 9.7 0.00 0.23 0.20 55 1010.8
20260906001034 28 190 1.6 6.4 0.00 0.23 0.20 56 1010.7
20260906000531 28 190 0.0 1.6 0.00 0.23 0.20 56 1010.6
20260906000105 28 0 0.0 9.7 0.00 0.20 0.18 56 1008.8
20260906000031 28 190 0.0 8.0 0.00 0.23 0.20 56 1010.3
20260905235531 28 190 3.2 9.7 0.00 0.23 0.20 55 1010.2
20260905235031 28 190 1.6 9.7 0.00 0.23 0.20 56 1010.1
20260905234607 28 190 4.8 14.5 0.00 0.20 0.18 56 1008.6
20260905234531 28 190 3.2 11.3 0.00 0.23 0.20 56 1010.0
20260905234032 28 190 6.4 14.5 0.00 0.23 0.20 55 1009.8
20260905233534 28 190 6.4 16.1 0.00 0.23 0.20 55 1009.7
20260905233105 28 190 6.4 17.7 0.00 0.20 0.18 53 1007.9
20260905233031 28 190 6.4 17.7 0.00 0.23 0.20 54 1009.6
20260905232530 29 190 8.0 17.7 0.00 0.23 0.20 53 1009.4
20260905232030 30 190 4.8 16.1 0.00 0.23 0.20 53 1009.4
20260905231602 30 190 4.8 11.3 0.00 0.20 0.18 52 1007.7
20260905231530 30 190 3.2 11.3 0.00 0.23 0.20 52 1009.3
20260905231032 30 190 3.2 14.5 0.00 0.23 0.20 52 1009.1
20260905230529 30 190 6.4 14.5 0.00 0.23 0.20 51 1009.3
20260905230112 30 190 3.2 12.9 0.00 0.20 0.18 51 1007.7
20260905230028 30 190 3.2 12.9 0.00 0.23 0.20 52 1009.3
20260905225528 30 190 1.6 12.9 0.00 0.23 0.20 53 1009.2
20260905225028 31 190 1.6 12.9 0.00 0.23 0.20 52 1009.3
20260905224609 31 190 4.8 12.9 0.00 0.20 0.18 51 1007.7
20260905224531 31 190 3.2 12.9 0.00 0.23 0.20 50 1009.2
20260905224028 31 190 3.2 9.7 0.00 0.23 0.20 49 1009.3
20260905223530 31 190 4.8 9.7 0.00 0.23 0.20 48 1009.2
20260905223102 31 190 1.6 11.3 0.00 0.20 0.18 47 1007.6
20260905223028 31 190 1.6 11.3 0.00 0.23 0.20 48 1009.2
20260905222528 31 190 4.8 11.3 0.00 0.23 0.20 48 1009.2
20260905222027 31 190 1.6 9.7 0.00 0.23 0.20 47 1009.1
20260905221606 32 190 3.2 16.1 0.00 0.20 0.18 48 1007.5
20260905221528 32 190 1.6 16.1 0.00 0.23 0.20 48 1009.1
20260905221027 32 190 8.0 16.1 0.00 0.23 0.20 47 1009.2